Temperature
18 18 18 18 18 18 18 18 18 18 18 18 18 18 18 18 18 18 18 18 18 18 18 18 18 18 18 18 18 18 18 18 18 18 18 18 18 18 18 18 18 18 18
18 18 18 18 18 18 18 18 18 18 18 18 18 18 18 18 18 18 18 18 18 18 18 18 18 18 18 18 18 18 18 18 18 18 18 18 18 18 18 18 18 18 18
18 18 18 18 18 18 18 18 18 18 18 18 18 18 18 18 18 18 18 18 18 18 18 18 18 18 18 18 18 18 18 18 18 18 18 18 18 18 18 18 18 18 18
18 18 18 18 18 17 17 17 17 17 17 18 18 18 18 18 18 18 18 18 18 18 18 18 18 18 18 18 18 18 18 18 18 18 18 18 18 18 18 18 18 18 18
18 18 18 18 18 17 17 17 17 17 17 17 17 17 18 18 18 18 18 18 18 18 18 18 18 18 18 18 18 18 18 18 18 18 17 17 18 17 18 18 18 18 18
18 18 18 18 18 18 17 17 17 17 17 17 17 17 17 17 17 17 18 18 18 17 17 17 17 18 18 17 17 17 17 18 17 17 17 17 17 17 17 17 18 18 18
18 18 18 18 18 18 17 17 17 17 17 17 17 17 17 17 17 17 17 17 17 17 17 17 17 17 17 17 17 17 17 17 17 17 17 17 17 17 17 17 17 17 17
18 18 18 18 18 18 17 17 17 17 17 17 17 17 17 17 17 17 17 17 17 17 17 17 17 17 17 17 17 17 17 17 17 17 17 17 17 17 17 17 17 17 17
18 18 18 18 18 17 17 17 17 17 17 17 17 17 17 17 17 17 17 17 17 17 17 17 17 17 17 17 17 17 17 17 17 17 17 17 17 17 17 17 17 17 17
18 18 18 18 18 18 17 17 17 17 17 17 17 17 17 17 17 17 17 17 16 16 16 16 17 17 17 16 16 17 17 17 17 17 16 17 17 17 17 17 16 16 16
18 18 18 18 18 18 17 17 17 17 17 17 17 17 17 17 17 16 16 16 16 16 16 16 16 16 16 16 16 16 17 16 16 16 16 16 16 16 16 16 16 16 16
18 18 18 18 18 18 17 17 17 17 17 17 17 17 17 17 16 16 16 16 16 16 16 16 16 16 16 16 16 16 16 16 16 16 16 16 16 16 16 16 16 16 16
18 18 18 18 18 18 17 17 17 17 17 17 17 17 17 17 16 16 16 16 16 16 16 16 16 16 16 16 16 16 16 16 16 16 16 16 16 16 16 16 16 16 16
18 18 18 18 18 18 17 17 17 17 17 17 17 17 17 16 16 16 16 16 16 16 16 16 16 16 16 16 16 16 16 16 16 16 16 16 16 16 15 15 15 16 16
19 18 18 18 18 18 17 17 17 17 17 17 17 16 16 16 16 16 16 16 16 16 16 16 16 15 16 16 15 15 15 15 16 15 15 15 15 15 15 15 15 15 15
19 19 18 18 18 18 18 17 17 17 17 17 17 16 16 16 16 16 16 16 16 16 16 15 15 15 15 15 15 15 15 15 15 15 15 15 15 15 15 15 15 15 15
19 19 18 18 18 18 18 17 17 17 17 17 17 16 16 16 16 16 16 16 16 16 15 15 15 15 15 15 15 15 15 15 15 15 15 15 15 15 15 15 15 15 15
19 19 18 18 18 18 18 17 17 17 17 17 17 16 16 16 16 16 16 16 16 15 15 15 15 15 15 15 15 15 15 15 15 15 15 15 15 14 14 14 14 14 14
19 19 19 18 18 18 18 17 17 17 17 17 17 16 16 16 16 16 16 16 16 15 15 15 15 15 15 15 15 14 14 15 15 14 14 14 14 14 14 14 14 14 14
19 19 19 18 18 18 18 17 17 17 17 17 16 16 16 16 16 16 16 15 15 15 15 15 15 15 15 15 15 14 14 14 14 14 14 14 14 14 14 14 14 14 14
19 19 19 18 18 18 17 17 17 17 17 16 16 16 16 16 16 16 15 15 15 15 15 15 15 15 15 15 15 14 14 14 14 14 14 14 14 14 14 14 14 14 14
19 19 19 18 18 18 18 17 17 17 16 16 16 16 16 16 16 15 15 15 15 15 15 15 15 15 14 14 14 14 14 14 13 13 13 13 13 13 13 13 13 13 13
19 19 18 18 18 18 18 17 17 16 16 16 16 16 16 16 15 15 15 15 15 15 15 14 14 14 14 14 14 14 14 13 13 13 13 13 13 13 13 13 13 13 13
19 19 19 18 18 18 17 17 17 17 16 16 16 16 15 15 15 15 15 15 15 15 15 14 14 14 14 14 14 14 14 13 13 13 13 13 13 13 13 13 13 13 13
19 18 18 18 18 17 17 17 17 17 16 16 16 15 15 15 15 15 15 15 15 15 14 14 14 14 14 14 14 14 13 13 13 13 12 12 13 12 12 12 13 13 12
18 18 18 18 18 17 17 17 17 17 16 16 16 15 15 15 15 15 15 15 15 14 14 14 14 14 14 14 14 13 13 13 13 13 12 12 12 12 12 12 12 12 12
Wind_Speed
1 2 7 8 8 9 9 10 10 10 11 11 11 11 11 12 13 13 13 12 12 11 11 11 11 11 11 11 11 10 10 10 10 9 9 9 8 8 9 9 8 7 9
4 4 8 9 9 9 9 10 10 10 11 10 11 11 12 12 13 13 13 12 12 12 12 12 12 12 12 12 11 10 9 9 9 9 8 8 7 8 8 8 7 7 8
6 6 8 9 9 9 10 9 10 10 10 10 11 11 12 12 13 13 13 13 12 12 12 12 12 12 12 12 11 10 10 10 9 8 7 6 6 7 7 6 6 7 7
7 6 8 9 9 9 10 9 10 10 10 10 11 11 12 12 12 12 13 12 12 12 11 11 11 11 12 11 11 10 10 9 8 8 6 5 5 7 6 6 6 6 6
7 7 9 10 10 9 9 10 10 10 10 10 11 11 12 12 12 12 12 12 11 11 11 11 11 11 11 11 11 10 10 10 9 7 5 5 5 6 7 6 6 6 6
7 7 10 11 10 10 10 10 10 10 10 10 11 11 11 11 11 11 11 11 10 10 10 10 10 10 10 10 10 10 10 10 8 6 5 4 4 6 7 7 6 6 6
7 7 10 11 10 10 10 9 10 10 10 10 11 11 11 11 11 11 10 10 10 10 10 10 10 9 9 9 8 9 9 9 7 5 5 5 6 7 7 7 7 7 7
9 7 9 11 10 10 9 9 9 9 10 10 11 11 11 11 11 11 10 10 10 10 10 10 10 9 9 9 9 9 9 8 7 5 5 5 7 8 8 8 7 7 7
8 7 6 8 8 8 9 8 9 9 9 9 10 10 10 11 11 10 11 11 11 11 10 9 9 9 9 9 9 10 10 9 7 5 5 5 7 8 8 8 8 7 7
7 6 5 6 6 6 6 8 8 8 9 9 9 10 10 10 10 10 9 10 10 10 10 9 9 9 9 9 10 10 10 9 8 6 5 6 7 8 8 8 8 8 8
7 5 5 5 5 5 5 6 6 7 7 8 8 9 8 7 6 7 8 9 10 10 10 10 10 10 10 10 11 10 9 7 8 6 6 8 8 8 9 9 9 9 9
7 6 5 5 4 5 4 5 4 4 4 5 6 7 6 6 5 6 7 8 8 8 9 9 9 9 9 8 9 10 8 8 6 5 6 9 9 9 9 10 9 9 9
8 7 6 5 5 4 3 4 3 3 4 4 4 5 5 5 4 4 4 5 6 6 6 7 7 6 6 6 6 7 7 7 5 5 6 8 8 9 9 10 9 9 9
7 7 7 6 5 4 4 3 3 3 3 3 4 5 5 3 3 3 3 3 3 3 3 4 4 5 6 7 7 7 7 6 5 5 6 8 8 8 9 9 8 8 8
7 7 7 7 6 4 4 2 3 3 3 3 4 6 6 4 3 2 2 3 3 3 3 3 4 5 5 5 6 6 5 5 5 5 5 7 7 7 8 8 8 8 8
8 7 7 7 7 6 4 3 3 4 4 4 4 5 6 5 4 3 2 2 2 3 4 4 4 4 3 4 4 5 5 5 5 5 5 5 6 7 7 7 7 7 7
8 8 8 8 7 6 5 4 3 4 4 3 3 5 6 6 5 4 3 2 2 4 5 5 5 5 4 4 4 3 3 4 4 4 4 4 5 5 6 6 6 6 6
8 8 8 8 8 7 5 5 3 4 4 3 3 5 6 7 7 5 3 2 3 5 4 4 4 4 4 3 3 2 2 3 3 4 4 4 4 4 4 4 4 5 5
8 8 8 8 8 7 6 5 4 4 4 4 5 5 6 7 7 6 3 3 5 4 3 4 3 3 3 3 2 2 2 2 2 3 3 3 4 4 4 4 4 4 4
8 8 8 7 7 6 5 4 3 3 2 3 4 5 5 6 7 6 4 4 4 4 3 3 4 3 3 2 3 3 3 2 2 2 2 3 3 3 4 3 4 4 4
7 8 7 7 6 6 4 4 3 3 2 2 2 4 5 6 6 6 4 3 4 4 3 4 3 4 2 2 3 3 4 4 3 2 2 3 3 2 3 4 4 3 3
7 7 7 7 6 6 5 4 4 4 2 2 2 3 4 6 6 5 4 3 4 4 4 4 3 2 1 2 2 2 2 4 4 3 2 2 2 2 3 3 4 4 4
7 8 8 7 7 6 6 4 4 3 3 2 2 1 2 5 6 5 5 4 4 4 4 3 4 4 2 1 2 3 3 1 2 3 3 2 2 2 2 3 3 3 3
9 8 8 8 7 6 6 7 7 5 4 3 3 2 2 4 5 5 5 5 4 3 4 3 3 3 3 1 1 1 2 3 2 1 3 3 2 2 1 2 2 2 3
7 6 6 7 7 6 6 8 8 5 4 3 2 3 3 2 3 5 5 5 4 3 3 3 3 3 3 3 2 1 2 2 2 2 1 3 3 2 2 1 1 2 1
6 5 5 6 6 5 6 7 8 8 6 5 4 4 3 2 2 3 4 4 4 3 3 3 3 4 3 3 2 2 2 2 1 2 1 1 2 2 2 1 1 1 1
Wind_Direction
164 163 106 101 93 88 86 82 80 79 79 80 80 79 79 77 84 93 93 92 90 92 97 99 99 98 99 102 102 104 107 111 111 114 115 114 115 117 118 120 121 123 130
154 129 110 106 101 94 90 88 85 81 80 83 84 83 82 82 83 87 89 89 88 90 94 94 94 94 95 98 98 99 103 109 109 110 111 114 119 123 121 123 127 130 134
128 121 113 109 104 98 94 91 89 85 83 84 86 86 84 85 87 88 88 87 86 87 90 91 93 94 95 94 94 94 97 99 98 100 102 102 114 126 125 125 131 134 137
129 124 117 113 108 103 100 94 89 88 88 89 89 89 87 87 89 90 88 87 86 86 88 90 91 93 92 92 90 90 89 92 94 93 90 91 100 122 122 118 125 136 140
129 127 126 119 112 108 104 99 93 91 90 93 94 92 90 89 89 90 89 88 87 87 88 90 90 93 92 91 88 86 83 85 87 81 77 82 97 119 119 112 117 135 140
126 130 133 125 118 113 109 104 99 95 93 94 96 96 92 91 92 92 92 89 86 86 86 89 90 93 93 91 87 84 81 80 73 69 70 75 98 113 113 107 107 129 137
132 135 135 130 125 120 115 109 104 100 96 95 97 98 95 92 93 96 96 93 90 89 88 89 89 90 90 90 84 79 80 82 74 70 71 77 93 103 105 103 103 107 119
140 142 138 134 131 127 120 113 108 102 99 99 98 100 98 95 94 97 97 94 91 95 93 90 85 84 86 84 80 77 75 80 79 76 71 87 99 97 97 94 96 99 106
137 136 134 136 135 132 126 119 116 110 106 103 101 102 101 97 96 98 100 95 94 98 94 87 83 83 81 78 74 72 71 72 74 73 82 85 102 100 99 97 95 97 105
132 139 139 138 136 129 126 128 126 120 110 106 104 103 103 102 99 95 93 97 96 94 91 85 80 81 77 72 68 69 69 65 73 75 75 87 98 99 104 105 104 98 94
141 145 145 147 144 144 141 136 130 119 112 107 105 106 106 99 98 98 93 91 89 87 82 77 76 75 69 65 61 63 67 68 74 72 76 91 91 92 97 102 103 100 95
153 159 157 156 159 157 148 132 123 114 114 109 109 107 107 105 99 98 95 93 89 83 76 71 68 65 61 59 59 64 70 68 73 73 82 92 91 94 97 97 99 98 95
158 156 157 160 157 152 139 136 133 119 118 116 123 123 117 109 99 90 85 84 83 75 64 63 59 59 62 66 66 69 71 71 68 68 80 89 92 94 97 95 92 95 96
153 156 158 156 151 153 144 138 135 129 131 132 136 132 125 112 101 101 94 86 83 81 72 65 68 67 72 75 78 77 75 76 73 67 71 78 88 92 95 95 89 95 93
152 155 158 158 155 151 134 133 121 123 130 133 129 133 132 121 118 108 104 100 97 93 93 78 79 78 76 77 81 81 82 81 81 74 68 73 81 90 93 95 92 89 86
164 159 152 152 152 142 135 131 126 126 119 116 121 131 134 132 128 116 100 93 98 100 106 102 90 82 74 72 65 74 81 86 87 83 78 76 83 88 90 98 97 89 84
169 160 155 152 147 140 137 135 130 124 116 114 121 121 127 129 127 119 109 100 99 105 102 93 82 82 76 70 62 62 77 80 91 92 86 80 82 84 93 98 101 96 91
159 155 155 151 143 143 141 132 127 123 115 114 120 118 123 126 125 116 108 106 107 101 100 97 88 83 72 68 64 49 59 68 78 89 89 85 85 85 86 93 97 103 101
160 157 152 149 148 150 143 132 129 118 112 117 117 120 124 123 123 116 105 108 107 95 87 98 87 99 94 79 76 62 44 48 61 82 81 83 90 94 87 82 86 94 102
157 154 151 144 149 146 134 118 103 95 103 108 116 126 126 124 119 114 106 99 103 92 82 87 90 80 91 88 79 55 29 24 41 61 70 76 86 90 90 84 79 78 81
155 154 152 148 158 149 140 139 137 138 133 117 117 121 124 125 122 113 107 103 104 107 115 111 100 87 68 72 72 40 18 19 24 29 54 67 67 79 85 81 78 76 67
167 165 160 163 162 162 164 162 158 150 145 139 121 113 125 126 127 127 124 122 116 111 104 104 105 98 68 69 106 88 30 5 3 6 14 52 54 61 66 78 89 83 75
172 174 172 171 168 168 160 136 114 87 72 72 88 107 127 130 127 128 134 130 127 127 134 135 129 122 118 21 75 127 132 203 311 345 357 18 27 40 34 73 87 89 81
186 181 171 166 167 168 158 149 147 149 160 182 171 158 149 135 133 136 135 133 131 134 142 156 138 133 132 135 26 55 130 153 148 327 336 351 1 23 13 51 82 90 84
180 176 171 166 167 168 166 165 160 162 174 161 143 141 143 147 145 143 141 135 136 142 147 140 128 125 131 143 147 122 79 64 88 138 268 325 349 340 347 16 79 89 92
171 169 165 164 168 171 168 169 167 166 164 153 156 160 163 161 152 150 144 142 147 150 151 146 138 129 123 122 127 131 139 135 157 141 170 271 302 308 324 345 30 79 112
Height
1519 1518 1517 1516 1515 1515 1514 1514 1513 1513 1512 1512 1511 1511 1510 1509 1506 1507 1509 1510 1511 1511 1512 1512 1512 1512 1512 1512 1513 1513 1514 1514 1515 1516 1517 1518 1519 1520 1521 1522 1523 1524 1524
1519 1518 1517 1516 1516 1515 1515 1514 1514 1513 1513 1513 1512 1512 1511 1511 1510 1510 1511 1511 1512 1512 1512 1513 1513 1513 1513 1513 1514 1514 1514 1515 1515 1516 1517 1518 1519 1520 1521 1522 1523 1523 1525
1519 1518 1518 1517 1517 1516 1516 1515 1515 1514 1514 1514 1513 1513 1513 1512 1512 1512 1512 1513 1513 1513 1513 1514 1514 1514 1514 1514 1515 1515 1515 1515 1516 1517 1518 1518 1519 1520 1521 1522 1522 1523 1524
1519 1519 1518 1518 1517 1517 1517 1516 1516 1516 1515 1515 1514 1514 1514 1514 1514 1514 1514 1514 1514 1514 1514 1515 1515 1515 1515 1515 1515 1516 1516 1516 1517 1517 1518 1519 1520 1520 1521 1521 1521 1522 1523
1519 1519 1519 1519 1518 1518 1518 1518 1517 1517 1516 1516 1516 1516 1515 1515 1515 1515 1515 1515 1515 1515 1515 1516 1516 1516 1516 1516 1516 1517 1517 1517 1517 1518 1519 1519 1520 1520 1521 1521 1521 1521 1522
1520 1520 1520 1520 1520 1519 1519 1519 1519 1518 1518 1517 1517 1517 1517 1516 1516 1516 1516 1516 1516 1516 1516 1516 1517 1517 1517 1517 1517 1517 1517 1518 1518 1518 1519 1519 1520 1521 1521 1521 1520 1520 1521
1521 1521 1521 1521 1521 1521 1521 1520 1520 1520 1519 1519 1519 1518 1518 1518 1518 1517 1517 1517 1517 1517 1517 1517 1518 1518 1518 1518 1518 1518 1518 1518 1518 1519 1519 1520 1520 1521 1521 1521 1521 1521 1521
1522 1522 1522 1522 1522 1522 1522 1522 1522 1521 1521 1521 1520 1520 1520 1519 1519 1519 1518 1518 1518 1518 1518 1518 1519 1519 1519 1519 1519 1519 1518 1518 1518 1519 1519 1520 1521 1521 1521 1522 1522 1522 1523
1523 1523 1523 1523 1524 1524 1524 1523 1523 1523 1523 1522 1522 1522 1521 1521 1521 1520 1520 1519 1519 1519 1520 1520 1520 1520 1520 1520 1519 1519 1519 1518 1518 1518 1519 1520 1521 1521 1522 1522 1522 1523 1523
1524 1525 1525 1525 1525 1525 1525 1525 1525 1525 1524 1524 1524 1523 1523 1523 1522 1522 1522 1521 1521 1521 1521 1521 1521 1521 1521 1520 1520 1520 1519 1518 1518 1519 1520 1521 1522 1522 1522 1523 1523 1523 1524
1525 1526 1526 1526 1526 1526 1527 1527 1527 1526 1526 1526 1525 1525 1525 1524 1524 1524 1524 1523 1523 1523 1523 1523 1523 1522 1522 1521 1521 1521 1521 1520 1520 1521 1522 1522 1523 1523 1523 1523 1524 1524 1524
1525 1526 1527 1527 1527 1527 1527 1528 1528 1528 1528 1527 1527 1527 1526 1526 1526 1525 1525 1525 1525 1525 1525 1524 1524 1524 1523 1523 1523 1523 1523 1522 1522 1523 1523 1524 1524 1524 1524 1524 1525 1525 1525
1525 1526 1527 1528 1528 1528 1528 1529 1529 1529 1529 1529 1529 1528 1528 1528 1527 1527 1527 1527 1527 1526 1526 1526 1526 1525 1525 1525 1525 1525 1525 1525 1525 1525 1525 1525 1525 1525 1525 1525 1525 1525 1525
1525 1526 1527 1528 1528 1529 1529 1529 1530 1530 1530 1530 1530 1529 1529 1529 1529 1529 1528 1528 1528 1528 1528 1528 1527 1527 1527 1527 1527 1526 1526 1526 1526 1526 1526 1526 1526 1526 1526 1526 1526 1526 1526
1525 1525 1527 1528 1528 1529 1530 1530 1530 1530 1531 1531 1531 1531 1530 1530 1530 1530 1530 1529 1529 1529 1529 1529 1529 1529 1528 1528 1528 1528 1528 1528 1528 1528 1528 1528 1528 1527 1527 1527 1527 1527 1526
1524 1525 1526 1527 1528 1529 1530 1530 1531 1531 1531 1531 1532 1531 1531 1531 1531 1531 1531 1530 1530 1530 1530 1530 1530 1530 1530 1530 1530 1529 1529 1529 1529 1529 1529 1529 1529 1528 1528 1528 1528 1528 1527
1523 1524 1526 1527 1528 1529 1530 1530 1531 1532 1532 1532 1532 1532 1532 1532 1532 1531 1531 1531 1531 1531 1531 1531 1531 1531 1531 1531 1531 1531 1531 1531 1530 1530 1530 1529 1529 1529 1529 1529 1529 1528 1528
1522 1523 1525 1526 1528 1529 1529 1530 1531 1532 1532 1532 1532 1532 1532 1532 1532 1532 1532 1532 1532 1532 1532 1531 1531 1531 1531 1531 1531 1531 1531 1531 1531 1531 1531 1530 1530 1530 1530 1530 1529 1529 1529
1521 1522 1524 1526 1527 1528 1529 1530 1531 1531 1532 1532 1532 1532 1532 1533 1533 1533 1532 1532 1532 1532 1532 1532 1532 1532 1532 1532 1532 1532 1532 1532 1532 1532 1532 1531 1531 1531 1531 1530 1530 1530 1529
1520 1521 1523 1525 1526 1527 1528 1529 1530 1531 1531 1532 1532 1532 1532 1532 1532 1532 1532 1533 1532 1532 1532 1533 1532 1533 1533 1532 1532 1532 1532 1532 1533 1532 1532 1532 1532 1532 1531 1531 1531 1530 1530
1519 1520 1522 1523 1525 1526 1527 1528 1529 1530 1530 1531 1531 1532 1532 1532 1532 1532 1532 1533 1533 1533 1533 1533 1533 1533 1533 1533 1532 1532 1533 1533 1533 1533 1533 1532 1532 1532 1532 1531 1531 1530 1530
1517 1519 1520 1522 1523 1525 1526 1527 1528 1529 1530 1530 1531 1531 1532 1532 1532 1532 1532 1533 1533 1533 1533 1533 1533 1533 1533 1533 1533 1532 1533 1534 1533 1533 1533 1533 1532 1532 1531 1531 1530 1530 1530
1514 1516 1518 1520 1522 1523 1524 1526 1527 1528 1529 1529 1530 1530 1531 1531 1532 1532 1532 1532 1532 1532 1532 1533 1533 1533 1532 1533 1533 1533 1532 1532 1533 1533 1532 1532 1532 1532 1531 1530 1530 1530 1529
1512 1515 1517 1518 1520 1522 1523 1524 1525 1525 1526 1527 1528 1529 1530 1531 1531 1531 1531 1532 1532 1532 1532 1532 1532 1532 1532 1532 1532 1532 1533 1532 1532 1532 1532 1532 1532 1531 1531 1530 1530 1529 1529
1511 1513 1515 1516 1518 1520 1521 1522 1523 1524 1525 1526 1527 1528 1529 1529 1530 1530 1531 1531 1531 1531 1531 1532 1532 1532 1532 1532 1531 1531 1531 1531 1531 1531 1530 1530 1530 1530 1530 1529 1529 1529 1528
1509 1511 1513 1514 1516 1517 1518 1519 1521 1522 1523 1524 1525 1526 1527 1528 1529 1529 1529 1530 1530 1530 1530 1531 1531 1531 1531 1531 1531 1530 1530 1530 1530 1530 1530 1529 1529 1529 1529 1529 1528 1528 1527